Location: Berg
(47.2344°N, 9.5296°E)
Time: 23:00:33
(UTC+00:00)

ATLAS 2AS CENTAUR R/B - Pass Details

Date: 24 January 2021
Orbit: 947 x 1265 km, 63.7° (Epoch: 13 February)

Event Time Altitude Azimuth Distance (km) Brightness Sun altitude
Rises 17:01:38 0° 263° (W) 4,219 7.8 -8.6°
Reaches altitude 10° 17:04:51 10° 273° (W) 3,252 6.5 -9.1°
Maximum altitude 17:11:47 32° 334° (NNW) 1,997 4.2 -10.2°
Drops below altitude 10° 17:18:32 10° 36° (NE) 3,153 4.7 -11.3°
Enters shadow 17:19:28 - 39° (NE) 3,425 4.9 -11.4°
